DW4212 La Cabrera ES current weather conditions

sailwx.info

Wind from 184

Air temperature 5.6° C
Dewpoint -1.8° C

Last reported at 2014-Dec-22 18:49 UTC.
Time now 2014-Dec-22 19:53 UTC

Location: N 40°53' W 003°35'.
View on Google Maps.

See reports from other nearby stations

  
Tides and Currents Weather Stations Pressure Air Temp Water Temp Dewpoint Dewpoint Depression Visibility Wind Speed Wind Dir Waves Ship Positions
date/time (UTC)wind fromknots sea level pressurealtimeterstation pressurevisibilityair tempwater tempwave heightnotes
2014-Dec-22 18:49 184 5.6
2014-Dec-22 18:39 184 5.6
2014-Dec-22 18:29 184 5.6
2014-Dec-22 18:19 184 6.1
2014-Dec-22 18:09 184 6.1
2014-Dec-22 17:59 184 6.7
2014-Dec-22 17:49 184 6.7
2014-Dec-22 17:39 184 7.2
2014-Dec-22 17:29 184 7.8
2014-Dec-22 17:20 184 8.3
2014-Dec-22 17:09 184 8.3
2014-Dec-22 16:59 184 8.9
2014-Dec-22 16:39 184 9.4
2014-Dec-22 16:29 184 10.0
2014-Dec-22 16:19 184 10.0
2014-Dec-22 16:09 184 10.6
2014-Dec-22 15:59 184 10.6
2014-Dec-22 15:49 184 10.6
2014-Dec-22 15:39 184 10.6
2014-Dec-22 15:29 184 11.1
2014-Dec-22 15:19 184 11.1
2014-Dec-22 15:09 184 11.1
2014-Dec-22 14:59 184 0 gusting 4 11.7
2014-Dec-22 14:49 184 0 gusting 4 11.7
2014-Dec-22 14:39 182 11.7
2014-Dec-22 14:29 182 0 gusting 3 11.7
2014-Dec-22 14:19 175 0 gusting 3 11.1
2014-Dec-22 13:59 188 0 gusting 4 11.1
2014-Dec-22 13:49 188 11.7
2014-Dec-22 13:39 188 11.7
2014-Dec-22 13:29 194 11.7
2014-Dec-22 13:19 194 0 gusting 5 11.7
2014-Dec-22 13:09 175 11.7
2014-Dec-22 12:59 174 11.7
2014-Dec-22 12:49 178 0 gusting 3 11.1
2014-Dec-22 12:39 126 11.1
2014-Dec-22 12:29 085 11.1
2014-Dec-22 12:19 085 11.1
2014-Dec-22 12:09 088 10.6
2014-Dec-22 11:59 084 0 gusting 4 10.6
2014-Dec-22 11:49 077 0 gusting 4 10.6
2014-Dec-22 11:39 178 0 gusting 3 10.6
2014-Dec-22 11:29 178 0 gusting 2 10.0
2014-Dec-22 11:19 178 10.0
2014-Dec-22 11:09 178 10.0
2014-Dec-22 10:59 178 9.4
2014-Dec-22 10:49 178 9.4
2014-Dec-22 10:39 178 8.9
2014-Dec-22 10:29 178 0 gusting 1 8.9
2014-Dec-22 10:19 178 8.3
2014-Dec-22 10:09 178 7.8
2014-Dec-22 09:59 178 8.3
2014-Dec-22 09:49 178 7.8
2014-Dec-22 09:39 178 8.3
2014-Dec-22 09:29 178 1 gusting 3 7.8
2014-Dec-22 09:19 178 7.2
2014-Dec-22 09:09 178 6.1
2014-Dec-22 08:59 178 6.1
2014-Dec-22 08:49 178 5.0
2014-Dec-22 08:39 178 0 gusting 2 3.9
2014-Dec-22 08:29 178 3.9
2014-Dec-22 08:19 178 3.9
2014-Dec-22 08:09 178 3.9
2014-Dec-22 07:59 178 3.3
2014-Dec-22 07:49 178 3.3
2014-Dec-22 07:39 178 3.3
2014-Dec-22 07:29 178 2.8
2014-Dec-22 07:19 178 2.8
2014-Dec-22 07:09 178 284 gusting 284 2.8
2014-Dec-22 06:59 178 3.3
2014-Dec-22 06:49 178 3.3
2014-Dec-22 06:39 178 3.3
2014-Dec-22 06:29 178 3.3
2014-Dec-22 06:19 178 3.3
2014-Dec-22 05:59 178 3.3
2014-Dec-22 05:49 178 2.8
2014-Dec-22 05:39 178 2.8
2014-Dec-22 05:29 178 2.8
2014-Dec-22 05:10 178 3.3
2014-Dec-22 04:59 178 3.3
2014-Dec-22 04:49 178 3.3
2014-Dec-22 04:39 178 3.3
2014-Dec-22 04:29 179 3.9
2014-Dec-22 04:19 178 3.9
2014-Dec-22 04:09 178 4.4
2014-Dec-22 03:59 178 4.4
2014-Dec-22 03:49 178 4.4
2014-Dec-22 03:39 178 4.4
2014-Dec-22 03:29 178 4.4
2014-Dec-22 03:19 178 0 gusting 3 4.4
2014-Dec-22 03:09 178 4.4
2014-Dec-22 02:59 178 3.9
2014-Dec-22 02:49 178 3.9
2014-Dec-22 02:39 178 3.9
2014-Dec-22 02:29 178 3.9
2014-Dec-22 02:19 178 3.9
2014-Dec-22 02:09 178 3.9
2014-Dec-22 01:59 178 3.9
2014-Dec-22 01:49 178 3.9
2014-Dec-22 01:39 178 3.9
2014-Dec-22 01:29 178 3.9
2014-Dec-22 01:19 178 3.3
2014-Dec-22 01:09 178 3.3
2014-Dec-22 00:59 178 3.9
2014-Dec-22 00:49 178 3.9
2014-Dec-22 00:39 178 3.9
2014-Dec-22 00:29 178 3.9
2014-Dec-22 00:19 178 3.9
2014-Dec-22 00:09 178 3.9
2014-Dec-21 23:59 178 3.9
2014-Dec-21 23:49 178 3.9
2014-Dec-21 23:39 178 3.3
2014-Dec-21 23:29 178 3.9
2014-Dec-21 23:19 178 3.9
2014-Dec-21 22:49 178 4.4
2014-Dec-21 22:39 178 4.4
2014-Dec-21 22:29 178 4.4
2014-Dec-21 22:19 178 4.4
2014-Dec-21 22:09 178 4.4
2014-Dec-21 21:59 178 4.4
2014-Dec-21 21:49 178 4.4
2014-Dec-21 21:39 178 5.0
2014-Dec-21 21:29 178 5.0
2014-Dec-21 21:19 178 5.0
2014-Dec-21 21:09 178 5.0
2014-Dec-21 20:59 178 5.6
2014-Dec-21 20:49 178 5.6
2014-Dec-21 20:39 178 5.6
2014-Dec-21 20:29 178 6.1
2014-Dec-21 20:19 178 6.1
2014-Dec-21 20:09 178 6.1
2014-Dec-21 19:59 178 6.1
2014-Dec-21 19:49 178 0 gusting 1 6.1
2014-Dec-21 19:39 178 6.1
2014-Dec-21 19:29 178 5.6
2014-Dec-21 19:19 178 5.6
2014-Dec-21 19:09 178 5.6
2014-Dec-21 18:59 178 5.6
2014-Dec-21 18:49 178 5.6
2014-Dec-21 18:39 178 6.1
2014-Dec-21 18:29 178 6.1
2014-Dec-21 18:19 178 6.1
2014-Dec-21 18:09 178 6.1
2014-Dec-21 17:59 178 6.7
2014-Dec-21 17:49 178 6.7
2014-Dec-21 17:39 178 7.2
2014-Dec-21 17:29 178 7.2
2014-Dec-21 17:19 178 7.8
2014-Dec-21 17:09 178 7.8
2014-Dec-21 16:59 178 8.3
2014-Dec-21 16:49 178 8.3
2014-Dec-21 16:39 178 8.9
2014-Dec-21 16:29 178 8.9
2014-Dec-21 16:19 178 8.9
2014-Dec-21 16:09 178 9.4
2014-Dec-21 15:59 178 9.4
2014-Dec-21 15:49 178 10.0
2014-Dec-21 15:39 178 0 gusting 3 10.0
2014-Dec-21 15:29 178 10.6
2014-Dec-21 15:19 178 0 gusting 3 10.6
2014-Dec-21 15:09 177 10.6
2014-Dec-21 14:59 172 11.1
2014-Dec-21 14:49 172 0 gusting 3 11.1
2014-Dec-21 14:39 172 11.1
2014-Dec-21 14:29 172 0 gusting 3 11.1
2014-Dec-21 14:19 172 0 gusting 2 11.1
2014-Dec-21 14:09 172 0 gusting 3 11.7
2014-Dec-21 13:59 172 1 gusting 5 11.7
2014-Dec-21 13:49 170 0 gusting 4 11.7
2014-Dec-21 13:39 159 0 gusting 4 12.2
2014-Dec-21 13:29 157 12.2
2014-Dec-21 13:19 157 0 gusting 3 11.7
2014-Dec-21 13:09 157 11.7
2014-Dec-21 12:59 157 0 gusting 3 11.7
2014-Dec-21 12:49 157 11.7
2014-Dec-21 12:39 157 0 gusting 3 11.7
2014-Dec-21 12:29 157 11.1
2014-Dec-21 12:19 157 11.1
2014-Dec-21 12:09 157 10.6
2014-Dec-21 11:59 157 10.6
2014-Dec-21 11:49 157 10.6
2014-Dec-21 11:39 157 10.0
2014-Dec-21 11:29 157 10.0
2014-Dec-21 11:19 157 9.4
2014-Dec-21 11:09 157 9.4
2014-Dec-21 10:59 138 9.4
2014-Dec-21 10:49 083 8.3
2014-Dec-21 10:39 080 8.3
2014-Dec-21 10:29 080 8.3
2014-Dec-21 10:19 078 7.8
2014-Dec-21 10:09 078 7.8
2014-Dec-21 09:59 078 7.2
2014-Dec-21 09:49 078 6.1
2014-Dec-21 09:39 078 6.1
2014-Dec-21 09:29 078 0 gusting 4 5.0
2014-Dec-21 09:19 074 5.6
2014-Dec-21 09:09 071 1 gusting 3 4.4
2014-Dec-21 08:59 360 3.9
2014-Dec-21 08:49 360 3.9
2014-Dec-21 08:39 360 3.3
2014-Dec-21 08:29 360 2.2
2014-Dec-21 08:19 360 1.7
2014-Dec-21 08:09 360 1.1
2014-Dec-21 07:59 360 1.1
2014-Dec-21 07:49 360 1.1
2014-Dec-21 07:39 360 1.1
2014-Dec-21 07:29 360 1.1
2014-Dec-21 07:19 360 1.7
2014-Dec-21 07:09 360 1.7
2014-Dec-21 06:59 360 1.7
2014-Dec-21 06:49 360 1.7
2014-Dec-21 06:39 360 1.7
2014-Dec-21 06:29 360 1.7
2014-Dec-21 06:19 360 1.7
2014-Dec-21 06:09 360 1.7
2014-Dec-21 05:59 360 1.7
2014-Dec-21 05:49 360 1.7
2014-Dec-21 05:39 360 1.7
2014-Dec-21 05:29 360 1.7
2014-Dec-21 05:19 360 1.7
2014-Dec-21 05:09 360 2.2
2014-Dec-21 04:59 360 2.2
2014-Dec-21 04:49 360 2.2
2014-Dec-21 04:39 360 2.2
2014-Dec-21 04:29 360 2.2
2014-Dec-21 04:19 360 2.2
2014-Dec-21 04:09 360 2.8
2014-Dec-21 03:59 360 2.8
2014-Dec-21 03:49 360 3.3
2014-Dec-21 03:39 360 3.3
2014-Dec-21 03:29 360 3.3
2014-Dec-21 03:19 360 3.3
2014-Dec-21 03:09 360 3.3
2014-Dec-21 02:59 360 3.9
2014-Dec-21 02:49 360 3.9
2014-Dec-21 02:39 360 3.9
2014-Dec-21 02:29 360 3.9
2014-Dec-21 02:19 360 4.4
2014-Dec-21 02:09 360 4.4
2014-Dec-21 01:59 360 4.4
2014-Dec-21 01:49 360 5.0
2014-Dec-21 01:39 052 5.0
2014-Dec-21 01:29 072 5.0
2014-Dec-21 01:19 073 5.0
2014-Dec-21 01:09 010 2 gusting 3 6.1
2014-Dec-21 00:59 010 2 gusting 4 6.1
2014-Dec-21 00:49 010 2 gusting 4 6.1
2014-Dec-21 00:39 011 2 gusting 5 6.1
2014-Dec-21 00:29 009 2 gusting 6 6.7
2014-Dec-21 00:19 005 1 gusting 6 7.2
2014-Dec-21 00:09 355 2 gusting 4 7.2
2014-Dec-20 23:59 355 2 gusting 4 7.2
2014-Dec-20 23:49 337 0 gusting 5 7.2
2014-Dec-20 23:39 337 1 gusting 4 7.2
2014-Dec-20 23:29 360 1 gusting 5 7.2
2014-Dec-20 23:19 355 1 gusting 4 7.2
2014-Dec-20 23:09 355 3 gusting 6 7.8
2014-Dec-20 22:59 346 2 gusting 7 7.8
2014-Dec-20 22:49 360 3 gusting 7 7.8
2014-Dec-20 22:39 360 2 gusting 6 7.8
2014-Dec-20 22:29 331 3 gusting 7 7.8
2014-Dec-20 22:19 330 2 gusting 6 7.8
2014-Dec-20 22:09 344 2 gusting 6 7.8
2014-Dec-20 21:59 348 2 gusting 7 7.8
2014-Dec-20 21:49 330 3 gusting 7 7.8
2014-Dec-20 21:39 360 2 gusting 6 7.8
2014-Dec-20 21:29 346 2 gusting 6 7.8
2014-Dec-20 21:19 005 3 gusting 6 7.8
2014-Dec-20 21:09 005 3 gusting 6 7.8
2014-Dec-20 20:59 349 2 gusting 6 7.8
2014-Dec-20 20:49 355 4 gusting 7 7.8
2014-Dec-20 20:39 355 2 gusting 6 7.8
2014-Dec-20 20:29 334 1 gusting 5 7.8
2014-Dec-20 20:19 346 1 gusting 6 7.8
2014-Dec-20 20:09 009 2 gusting 7 8.3
2014-Dec-20 19:59 317 2 gusting 7 8.3
2014-Dec-20 19:49 360 3 gusting 9 8.3
2014-Dec-20 19:39 337 1 gusting 5 8.3
2014-Dec-20 19:29 334 1 gusting 6 8.3
2014-Dec-20 19:19 325 1 gusting 5 8.3
2014-Dec-20 19:09 329 8.3